When you browse on this site, cookies collect data to enhance your experience and personalize the content and advertising you see.
Visit our Privacy Policy to learn more. By continuing to use the site, you agree to this use of cookies and data.
  • In Norway
  • List of Countries
  • For 7 days
  • Water Temperature
  • Satellite Maps
  • Weather Map
  • Weather Widgets
  • user-avatar
    Login

    Hourly Weather Kalgoorlie

    Today, 18 December, Tuesday

    Time Temperature Precipitation Wind Pressure Humidity
    00:00 +17°C° 0 mm 8 mps 726 mmHg 76%
    01:00 +16°C° 0 mm 7 mps 726 mmHg 76%
    02:00 +16°C° 0 mm 7 mps 726 mmHg 76%
    03:00 +16°C° 0 mm 7 mps 727 mmHg 76%
    04:00 +16°C° 0 mm 7 mps 727 mmHg 76%
    05:00 +16°C° 0 mm 7 mps 727 mmHg 77%
    06:00 +16°C° 0 mm 7 mps 728 mmHg 76%
    07:00 +16°C° 0 mm 7 mps 728 mmHg 75%
    08:00 +16°C° 0 mm 5 mps 729 mmHg 71%
    09:00 +19°C° 0 mm 5 mps 729 mmHg 64%
    10:00 +21°C° 0 mm 5 mps 729 mmHg 58%
    11:00 +22°C° 0 mm 5 mps 729 mmHg 52%
    12:00 +25°C° 0 mm 5 mps 729 mmHg 47%
    13:00 +27°C° 0 mm 5 mps 728 mmHg 42%
    14:00 +28°C° 0 mm 5 mps 729 mmHg 41%
    15:00 +28°C° 0 mm 6 mps 729 mmHg 39%
    16:00 +28°C° 0 mm 6 mps 729 mmHg 37%
    17:00 +29°C° 0 mm 6 mps 729 mmHg 36%
    18:00 +27°C° 0 mm 7 mps 729 mmHg 39%
    19:00 +26°C° 0 mm 7 mps 729 mmHg 42%
    20:00 +24°C° 0 mm 8 mps 730 mmHg 43%
    21:00 +22°C° 0 mm 8 mps 730 mmHg 48%
    22:00 +20°C° 0 mm 8 mps 730 mmHg 54%
    23:00 +18°C° 0 mm 8 mps 730 mmHg 60%

    Tomorrow, 19 December, Wednesday

    Time Temperature Precipitation Wind Pressure Humidity
    00:00 +17°C° 0 mm 7 mps 730 mmHg 63%
    01:00 +16°C° 0 mm 7 mps 730 mmHg 66%
    02:00 +15°C° 0 mm 6 mps 731 mmHg 69%
    03:00 +15°C° 0 mm 6 mps 731 mmHg 71%
    04:00 +15°C° 0 mm 6 mps 731 mmHg 73%
    05:00 +14°C° 0 mm 5 mps 731 mmHg 75%
    06:00 +15°C° 0 mm 5 mps 732 mmHg 69%
    07:00 +17°C° 0 mm 5 mps 732 mmHg 64%
    08:00 +19°C° 0 mm 5 mps 732 mmHg 58%
    09:00 +21°C° 0 mm 5 mps 732 mmHg 50%
    10:00 +22°C° 0 mm 4 mps 732 mmHg 42%
    11:00 +25°C° 0 mm 4 mps 731 mmHg 35%
    12:00 +27°C° 0 mm 4 mps 731 mmHg 31%
    13:00 +28°C° 0 mm 4 mps 731 mmHg 26%
    14:00 +30°C° 0 mm 4 mps 730 mmHg 22%
    15:00 +30°C° 0 mm 4 mps 730 mmHg 21%
    16:00 +30°C° 0 mm 4 mps 730 mmHg 19%
    17:00 +32°C° 0 mm 4 mps 730 mmHg 18%
    18:00 +30°C° 0 mm 4 mps 730 mmHg 20%
    19:00 +29°C° 0 mm 4 mps 731 mmHg 22%
    20:00 +28°C° 0 mm 4 mps 731 mmHg 23%
    21:00 +27°C° 0 mm 6 mps 732 mmHg 31%
    22:00 +24°C° 0 mm 7 mps 732 mmHg 38%
    23:00 +23°C° 0 mm 9 mps 732 mmHg 45%

    Day after tomorrow, 20 December, Thursday

    Time Temperature Precipitation Wind Pressure Humidity
    00:00 +22°C° 0 mm 8 mps 732 mmHg 49%
    01:00 +20°C° 0 mm 8 mps 732 mmHg 54%
    02:00 +18°C° 0 mm 8 mps 732 mmHg 58%
    03:00 +18°C° 0 mm 7 mps 732 mmHg 61%
    04:00 +17°C° 0 mm 7 mps 732 mmHg 63%
    05:00 +16°C° 0 mm 6 mps 732 mmHg 65%
    06:00 +19°C° 0 mm 6 mps 732 mmHg 61%
    07:00 +20°C° 0 mm 6 mps 732 mmHg 56%
    08:00 +21°C° 0 mm 6 mps 733 mmHg 51%
    09:00 +23°C° 0 mm 6 mps 733 mmHg 45%
    10:00 +26°C° 0 mm 5 mps 732 mmHg 39%
    11:00 +28°C° 0 mm 5 mps 732 mmHg 32%
    12:00 +29°C° 0 mm 4 mps 732 mmHg 29%
    13:00 +30°C° 0 mm 4 mps 731 mmHg 25%
    14:00 +32°C° 0 mm 4 mps 731 mmHg 22%
    15:00 +32°C° 0 mm 4 mps 731 mmHg 21%
    16:00 +33°C° 0 mm 3 mps 731 mmHg 20%
    17:00 +33°C° 0 mm 3 mps 730 mmHg 18%
    18:00 +32°C° 0 mm 4 mps 731 mmHg 19%
    19:00 +30°C° 0 mm 4 mps 731 mmHg 20%
    20:00 +29°C° 0 mm 4 mps 732 mmHg 20%
    21:00 +28°C° 0 mm 6 mps 732 mmHg 25%
    22:00 +26°C° 0 mm 8 mps 732 mmHg 29%
    23:00 +24°C° 0 mm 10 mps 732 mmHg 34%

    21 December, Friday

    Time Temperature Precipitation Wind Pressure Humidity
    00:00 +22°C° 0 mm 9 mps 732 mmHg 39%
    01:00 +21°C° 0 mm 9 mps 732 mmHg 45%
    02:00 +20°C° 0 mm 8 mps 731 mmHg 50%
    03:00 +18°C° 0 mm 7 mps 732 mmHg 53%
    04:00 +18°C° 0 mm 7 mps 732 mmHg 55%
    05:00 +17°C° 0 mm 6 mps 732 mmHg 57%
    06:00 +19°C° 0 mm 6 mps 732 mmHg 53%
    07:00 +21°C° 0 mm 6 mps 733 mmHg 49%
    08:00 +22°C° 0 mm 6 mps 733 mmHg 45%
    09:00 +24°C° 0 mm 6 mps 733 mmHg 39%
    10:00 +27°C° 0 mm 6 mps 733 mmHg 33%
    11:00 +29°C° 0 mm 5 mps 733 mmHg 27%
    12:00 +30°C° 0 mm 5 mps 732 mmHg 25%
    13:00 +32°C° 0 mm 4 mps 732 mmHg 23%
    14:00 +33°C° 0 mm 3 mps 731 mmHg 20%
    15:00 +33°C° 0 mm 3 mps 731 mmHg 20%
    16:00 +33°C° 0 mm 3 mps 731 mmHg 19%
    17:00 +33°C° 0 mm 3 mps 731 mmHg 19%
    18:00 +33°C° 0 mm 3 mps 731 mmHg 20%
    19:00 +32°C° 0 mm 4 mps 732 mmHg 21%
    20:00 +30°C° 0 mm 4 mps 732 mmHg 23%
    21:00 +29°C° 0 mm 5 mps 732 mmHg 23%
    22:00 +28°C° 0 mm 6 mps 732 mmHg 24%
    23:00 +27°C° 0 mm 7 mps 733 mmHg 24%

    22 December, Saturday

    Time Temperature Precipitation Wind Pressure Humidity
    00:00 +26°C° 0 mm 7 mps 732 mmHg 26%
    01:00 +26°C° 0 mm 7 mps 732 mmHg 27%
    02:00 +24°C° 0 mm 6 mps 732 mmHg 29%
    03:00 +23°C° 0 mm 6 mps 732 mmHg 32%
    04:00 +22°C° 0 mm 6 mps 732 mmHg 36%
    05:00 +22°C° 0 mm 6 mps 732 mmHg 39%
    06:00 +23°C° 0 mm 6 mps 732 mmHg 36%
    07:00 +26°C° 0 mm 6 mps 733 mmHg 33%
    08:00 +27°C° 0 mm 7 mps 733 mmHg 29%
    09:00 +29°C° 0 mm 6 mps 733 mmHg 26%
    10:00 +32°C° 0 mm 6 mps 733 mmHg 22%
    11:00 +34°C° 0 mm 5 mps 732 mmHg 18%
    12:00 +35°C° 0 mm 5 mps 732 mmHg 15%
    13:00 +36°C° 0 mm 4 mps 731 mmHg 13%
    14:00 +37°C° 0 mm 4 mps 730 mmHg 11%
    15:00 +37°C° 0 mm 4 mps 730 mmHg 10%
    16:00 +37°C° 0 mm 4 mps 730 mmHg 10%
    17:00 +37°C° 0 mm 4 mps 730 mmHg 10%
    18:00 +36°C° 0 mm 4 mps 730 mmHg 10%
    19:00 +35°C° 0 mm 4 mps 731 mmHg 11%
    20:00 +34°C° 0 mm 4 mps 731 mmHg 12%
    21:00 +33°C° 0 mm 5 mps 731 mmHg 12%
    22:00 +33°C° 0 mm 5 mps 731 mmHg 13%
    23:00 +32°C° 0 mm 6 mps 731 mmHg 14%

    23 December, Sunday

    Time Temperature Precipitation Wind Pressure Humidity
    00:00 +30°C° 0 mm 6 mps 731 mmHg 14%
    01:00 +30°C° 0 mm 6 mps 730 mmHg 15%
    02:00 +29°C° 0 mm 6 mps 730 mmHg 15%
    03:00 +28°C° 0 mm 6 mps 730 mmHg 15%
    04:00 +28°C° 0 mm 5 mps 730 mmHg 16%
    05:00 +27°C° 0 mm 5 mps 730 mmHg 16%
    06:00 +29°C° 0 mm 5 mps 731 mmHg 15%
    07:00 +30°C° 0 mm 5 mps 731 mmHg 13%
    08:00 +33°C° 0 mm 6 mps 731 mmHg 12%
    09:00 +34°C° 0 mm 5 mps 731 mmHg 11%
    10:00 +35°C° 0 mm 4 mps 731 mmHg 10%
    11:00 +37°C° 0 mm 3 mps 731 mmHg 8%
    12:00 +38°C° 0 mm 3 mps 730 mmHg 8%
    13:00 +38°C° 0 mm 3 mps 729 mmHg 8%
    14:00 +39°C° 0 mm 2 mps 729 mmHg 7%
    15:00 +39°C° 0 mm 2 mps 728 mmHg 7%
    16:00 +39°C° 0 mm 2 mps 728 mmHg 7%
    17:00 +39°C° 0 mm 2 mps 728 mmHg 6%
    18:00 +38°C° 0 mm 2 mps 728 mmHg 7%
    19:00 +38°C° 0 mm 2 mps 728 mmHg 7%
    20:00 +37°C° 0 mm 2 mps 728 mmHg 7%
    21:00 +36°C° 0 mm 3 mps 728 mmHg 9%
    22:00 +35°C° 0 mm 3 mps 728 mmHg 10%
    23:00 +35°C° 0 mm 4 mps 728 mmHg 11%
    Show more